Theta_e
321 321 321 320 320 321 321 321 320 320 322 322 322 320 320 321 320 322 324 323 325 325 323 325 325 325 326 326 326 327 327 328 329 329 330 330 331 331 331 331 333 334 332 332 332 333 334 331 331 332 331 329 328 326 326 326 328 329 329 329 330 329 330 329 328 329 329 329 329 330 329 328 327 326 325 323 319 316 314 317 319 316 316 318 318 319
321 321 320 320 319 319 319 320 320 320 322 322 321 320 320 320 320 321 324 324 324 324 323 322 324 325 325 326 326 327 326 327 330 329 328 329 330 331 332 332 333 333 332 333 333 333 333 331 329 330 331 330 328 327 327 326 327 328 326 327 327 326 328 328 326 327 328 328 328 328 328 328 328 328 328 324 316 312 310 311 312 311 315 321 323 324
320 320 319 320 319 319 319 319 320 320 322 322 321 320 318 320 324 324 323 324 324 324 323 322 323 324 324 324 325 327 326 327 328 328 328 328 329 330 331 332 333 333 333 333 333 333 333 332 330 330 331 331 328 327 326 326 327 328 327 327 326 325 327 327 326 327 327 326 327 327 326 326 326 323 321 320 315 317 316 314 314 312 313 320 326 325
318 318 319 320 319 319 319 319 320 321 321 321 320 319 317 320 326 324 322 324 325 324 323 322 324 324 325 324 324 326 325 327 328 327 329 329 329 330 330 332 333 332 333 332 333 333 332 331 331 330 331 331 328 326 326 328 329 330 329 328 327 327 327 326 327 328 325 323 325 325 323 323 323 319 318 320 319 321 321 318 318 317 315 319 323 323
317 318 319 319 319 319 319 319 320 320 319 319 320 318 317 319 322 322 322 323 324 323 323 323 323 324 325 324 325 326 326 327 328 327 328 328 327 329 330 331 331 331 333 332 332 333 332 330 329 331 332 331 330 329 328 329 330 331 330 328 328 329 329 326 326 325 318 316 319 318 318 320 321 321 323 324 322 323 323 323 321 319 321 321 321 324
319 319 319 319 319 319 319 319 319 319 318 317 318 318 319 319 320 322 323 322 321 320 321 323 323 323 324 324 325 326 327 326 327 327 327 328 327 328 329 330 330 330 331 332 332 332 333 332 331 332 332 330 332 332 330 328 329 330 329 329 329 330 328 323 320 319 316 317 316 316 319 322 323 325 326 325 325 325 323 323 323 321 323 322 318 321
318 319 319 319 319 320 319 319 319 319 318 315 317 319 320 320 320 322 322 322 320 319 321 324 325 323 323 323 325 326 326 325 325 327 326 327 327 327 328 329 330 330 330 332 333 333 333 333 332 331 329 330 332 330 327 326 328 330 328 327 329 330 328 320 316 318 321 323 322 323 325 325 327 328 325 322 321 323 320 319 324 325 325 323 319 318
319 319 319 319 319 320 319 318 318 319 317 315 318 319 320 320 319 320 323 323 321 320 322 324 325 324 322 323 325 325 325 325 325 326 326 326 327 327 328 329 329 331 331 332 332 333 333 332 332 330 326 329 331 327 323 323 327 329 325 325 329 331 327 319 316 321 324 325 326 326 327 327 329 328 322 318 317 319 319 319 323 326 328 325 320 317
320 319 318 320 319 319 319 318 318 319 317 317 319 319 320 321 320 320 322 322 321 320 320 321 324 325 322 322 324 324 324 325 325 325 325 326 328 328 327 328 330 331 331 331 331 333 334 333 333 331 328 329 330 327 325 323 325 328 327 326 329 331 327 319 316 322 327 328 324 323 326 328 329 327 322 321 320 319 320 321 320 322 326 325 321 317
320 319 319 319 319 318 318 319 319 318 318 318 319 319 321 321 321 322 321 321 321 320 318 320 322 323 322 321 324 325 324 325 325 325 326 326 326 327 328 329 330 331 329 328 330 332 333 333 333 333 332 331 329 327 328 326 324 327 327 324 324 327 326 319 315 318 323 326 323 321 326 328 328 327 326 328 325 319 320 324 322 318 320 323 321 317
319 319 319 319 319 319 318 319 319 319 319 319 319 319 321 321 322 322 321 321 320 317 317 319 320 321 321 322 324 325 325 326 325 325 326 326 326 326 328 329 329 330 329 327 329 331 333 333 333 334 333 333 331 328 329 329 326 326 326 322 318 319 320 318 316 314 315 319 319 321 326 327 328 328 326 328 326 320 321 325 323 318 318 322 319 315
320 319 319 319 319 320 320 320 320 321 320 320 321 319 319 320 320 320 320 321 318 315 316 318 320 321 321 323 325 325 325 325 325 325 325 326 326 326 327 328 328 328 328 329 329 330 332 332 332 333 332 332 332 330 330 329 326 326 326 324 320 316 315 316 318 316 315 316 314 319 326 326 328 329 325 324 325 324 325 325 323 319 320 323 320 317
320 320 319 320 320 320 321 320 320 322 321 320 321 318 318 319 315 314 318 319 317 315 316 318 320 320 321 323 325 325 325 325 325 325 325 325 326 326 326 327 328 328 327 329 330 330 331 331 331 331 331 331 330 330 331 329 327 326 326 325 324 322 320 318 321 322 320 319 314 317 324 326 327 328 327 326 325 327 328 327 326 321 321 325 323 320
319 320 321 321 320 321 321 320 318 319 320 320 319 316 317 319 315 315 318 318 318 318 316 318 321 318 319 323 324 324 325 326 326 325 325 325 326 326 326 327 328 329 328 329 330 332 331 331 331 332 331 330 328 328 330 329 328 327 326 326 325 326 327 324 324 325 323 320 317 316 320 324 326 324 325 328 328 328 326 324 326 324 323 324 322 321
317 318 320 321 320 321 321 321 319 319 320 319 319 318 318 317 316 317 318 316 318 320 317 319 323 319 319 322 324 325 325 325 326 326 325 326 325 325 326 328 328 328 328 328 329 330 330 330 331 332 331 331 330 329 330 329 327 326 325 326 326 326 328 326 325 323 320 319 320 321 322 323 326 325 324 326 327 329 325 321 323 325 322 320 320 319
317 317 321 322 321 321 321 322 321 320 320 319 321 321 317 317 317 317 317 316 317 319 317 319 322 322 322 324 324 325 326 326 325 326 326 326 326 326 327 328 327 327 328 328 328 328 329 330 331 332 332 332 332 331 331 330 328 327 326 327 329 330 329 328 327 325 322 322 322 324 325 325 326 327 327 325 325 327 325 321 322 324 321 317 315 315
317 319 323 322 321 321 321 321 322 320 319 320 322 320 318 320 320 317 317 317 317 317 319 321 322 321 322 325 326 325 325 326 325 326 326 326 327 327 327 327 327 327 328 329 329 328 329 330 329 331 331 331 331 332 332 332 331 330 329 330 332 332 331 330 330 328 326 325 325 325 327 327 327 326 325 325 326 326 323 320 322 325 323 318 314 313
319 319 322 322 321 322 321 321 321 321 321 320 319 319 320 322 323 320 318 317 317 316 319 322 321 320 322 323 325 326 325 325 325 325 326 326 326 326 327 327 327 328 329 328 326 326 328 330 329 330 329 329 330 330 330 331 331 331 332 332 330 330 332 332 331 330 328 327 327 327 326 327 328 325 322 322 327 328 324 318 320 324 323 317 313 313
320 318 321 322 321 321 321 321 320 321 322 321 319 320 321 321 323 322 318 317 317 316 320 324 323 324 327 325 325 326 326 326 325 325 326 325 326 326 326 327 328 330 329 328 327 327 328 329 328 330 330 330 331 331 329 328 327 327 329 329 329 329 332 333 332 332 331 329 328 328 326 326 327 327 324 321 325 328 325 319 318 322 321 316 314 313
322 320 319 321 322 321 320 321 321 321 323 324 323 324 323 322 321 319 318 319 319 317 319 323 325 328 330 328 326 326 325 325 325 324 325 326 327 328 328 328 328 330 330 329 329 328 328 328 328 329 329 329 330 330 330 330 329 330 330 330 331 330 329 332 332 331 331 331 331 329 327 326 326 328 327 325 326 328 326 323 322 323 322 317 314 313
323 322 319 321 321 320 320 323 323 322 323 324 323 323 324 323 322 321 321 321 320 318 316 320 326 330 331 328 326 326 325 324 325 325 326 327 328 329 330 330 330 330 331 330 329 328 328 329 329 328 327 327 327 327 327 329 329 330 331 331 331 329 327 328 328 325 325 328 331 331 330 329 329 330 330 328 327 328 326 326 327 327 324 320 315 314
322 323 320 320 320 321 322 324 324 322 323 322 321 322 322 322 322 322 323 322 320 319 317 319 325 327 326 325 326 325 326 326 325 326 327 326 328 329 329 329 329 329 329 328 328 328 328 329 327 326 326 326 327 327 326 327 328 328 328 329 329 328 328 327 326 325 324 323 326 330 331 330 330 330 329 328 327 327 327 326 327 328 326 322 318 316
323 323 321 320 321 324 324 324 324 323 322 321 321 323 323 324 322 320 322 322 320 320 318 318 325 327 325 326 327 325 326 326 326 327 327 326 327 328 328 327 327 328 327 327 327 327 326 326 325 325 325 324 325 326 327 328 328 328 328 327 328 328 328 327 328 328 328 326 325 327 328 328 329 327 326 326 327 328 327 326 326 327 327 324 320 317
324 323 321 320 322 325 324 323 322 321 320 322 324 324 323 325 324 321 323 322 319 320 319 318 324 328 326 325 327 326 326 326 326 327 327 327 327 327 327 327 327 327 327 327 327 326 326 325 325 325 324 324 324 324 325 326 327 329 329 329 329 329 326 325 326 328 328 328 327 327 326 325 325 324 323 324 327 328 328 326 326 326 326 323 320 317
324 323 323 320 320 322 322 323 325 323 322 324 325 324 323 324 324 323 324 322 319 320 319 318 323 326 325 326 327 325 326 326 325 326 326 327 327 326 327 327 327 327 327 328 327 327 326 326 326 325 324 324 324 324 323 324 326 328 330 329 327 326 327 327 328 329 328 327 327 327 326 323 323 324 322 321 324 327 327 327 326 325 323 320 318 318
323 324 324 321 321 322 322 324 326 326 324 324 324 324 323 322 324 323 321 320 320 321 320 320 323 324 325 326 326 325 326 326 325 325 326 326 326 326 326 327 327 326 326 326 326 326 326 325 325 325 325 325 324 324 324 324 324 326 328 328 323 321 324 326 327 328 328 328 328 327 325 323 323 325 324 322 322 325 326 327 327 325 322 318 317 320
325 324 325 325 324 325 324 325 327 326 324 324 323 323 323 322 323 323 321 321 322 323 322 322 323 324 325 326 325 326 325 325 325 325 325 326 326 325 326 326 326 325 325 326 325 325 325 325 325 325 324 324 323 323 324 324 324 324 325 327 324 319 320 322 322 324 326 327 327 327 325 325 325 325 325 324 323 323 324 325 327 326 322 318 319 323
325 324 325 326 325 325 324 324 326 325 324 323 322 322 322 323 324 324 323 324 324 323 323 325 325 325 325 326 325 325 325 325 326 325 325 325 325 325 325 325 325 325 325 325 325 325 325 324 324 325 324 324 323 323 323 323 324 324 324 326 325 322 319 319 319 320 322 323 324 325 326 326 325 325 325 325 324 323 322 323 325 327 323 320 322 325
326 325 325 327 325 324 323 322 323 324 323 322 322 322 321 323 325 324 324 325 324 324 325 326 327 326 326 326 325 325 326 326 325 325 325 325 325 325 325 324 325 325 325 325 324 324 325 324 324 324 324 323 323 323 322 322 323 324 323 324 325 324 322 321 320 319 319 319 320 323 324 325 325 325 324 324 325 324 323 322 323 325 324 323 324 325
327 325 326 327 324 323 322 321 321 322 321 320 321 322 321 322 324 324 324 325 324 324 325 326 327 326 326 325 325 325 325 325 325 325 325 325 325 325 325 325 325 324 324 324 324 323 323 323 323 323 323 322 322 322 322 322 322 322 322 322 324 325 324 323 323 322 321 321 320 320 322 322 323 323 324 324 324 324 324 323 322 322 322 323 324 324
325 324 326 325 322 322 322 321 321 320 320 321 321 322 322 323 324 325 325 326 325 325 325 325 326 326 325 325 325 325 325 326 325 325 325 325 325 325 325 324 324 323 323 323 322 323 322 323 323 323 323 322 321 321 321 321 320 320 321 321 322 323 324 325 326 325 324 324 323 321 320 320 320 322 322 323 323 323 323 322 322 321 320 322 323 323
324 322 324 324 321 322 322 321 320 320 321 322 322 323 323 323 324 325 325 325 325 325 325 325 325 325 324 324 325 324 325 326 325 325 325 324 324 324 324 323 323 322 322 322 321 321 321 322 322 322 322 322 320 321 321 320 319 318 319 319 320 320 321 322 324 322 321 323 322 320 320 320 319 319 319 321 323 322 321 322 322 322 321 321 321 322
323 321 321 321 320 321 322 321 321 320 321 322 323 324 324 324 324 325 325 324 324 324 325 325 325 325 324 324 324 324 325 325 324 324 324 323 322 322 322 322 321 321 320 320 320 320 320 321 321 320 321 321 320 321 320 319 318 318 318 318 318 317 317 318 319 318 318 319 320 318 319 320 319 318 317 318 320 322 322 322 321 322 323 322 321 320
324 324 322 320 319 319 322 322 321 320 321 323 325 324 323 324 324 324 324 324 323 323 324 324 324 324 324 324 324 324 325 324 324 323 323 322 321 321 321 320 319 319 319 319 319 319 319 319 319 319 319 319 319 319 319 319 318 318 318 318 317 317 317 317 316 316 316 317 317 316 318 321 320 318 317 316 316 318 319 321 322 322 322 323 321 320
322 324 323 319 318 320 321 320 320 321 324 326 326 324 323 324 324 324 324 323 323 323 323 323 323 323 324 324 323 323 324 323 322 322 321 320 320 320 320 319 319 318 318 318 318 318 317 317 318 318 318 318 318 318 318 318 318 318 317 317 317 316 316 316 316 316 316 316 316 315 317 319 319 317 317 316 316 316 316 318 321 322 323 323 321 320
323 323 321 318 319 319 318 318 320 324 327 327 325 324 324 323 323 324 324 324 323 323 323 323 323 323 324 324 323 323 323 322 322 321 320 319 319 319 319 318 318 317 317 318 317 316 316 316 317 317 317 318 318 318 317 317 318 318 317 317 317 316 316 316 315 315 315 315 315 315 315 316 316 316 315 315 316 318 317 317 318 319 322 323 323 322
325 324 319 318 319 318 317 321 325 327 327 327 325 324 324 324 324 324 324 324 324 323 324 324 323 323 323 323 322 321 321 322 321 320 319 319 318 318 318 318 317 317 317 317 316 315 315 315 316 317 317 317 317 315 315 316 317 316 316 316 316 316 315 315 315 314 314 314 314 314 314 315 315 313 312 313 316 319 320 319 317 317 319 322 323 323
325 324 322 320 319 317 318 322 326 326 326 326 326 325 325 325 325 324 323 324 324 323 324 324 323 322 322 321 321 320 319 320 320 319 318 318 318 318 318 317 316 316 317 316 315 314 314 314 315 316 316 316 315 314 314 315 315 315 314 314 315 315 314 314 313 313 313 313 313 314 314 314 314 312 310 311 314 317 317 316 315 316 318 320 321 322
322 323 324 321 318 315 315 318 322 324 326 327 326 326 325 324 325 323 321 323 324 324 323 323 322 321 321 320 320 319 318 318 318 318 318 317 317 318 317 316 316 315 315 315 314 312 312 313 314 315 314 314 314 313 313 313 314 314 313 313 314 313 313 312 312 312 313 313 312 312 313 313 314 313 311 311 312 312 312 311 311 312 314 316 318 320
321 321 322 319 317 316 314 316 322 326 327 327 326 325 324 323 324 323 321 323 325 323 322 322 321 320 320 319 319 319 318 318 317 318 317 317 317 316 316 316 315 314 314 314 313 311 310 311 313 313 313 313 312 312 312 312 312 313 312 313 313 313 312 311 311 312 312 312 311 311 312 313 312 312 312 313 313 311 311 311 311 311 312 313 314 315
321 320 320 318 317 316 315 318 325 327 327 326 325 324 324 324 323 322 322 323 323 322 321 321 320 319 319 319 318 318 318 317 317 317 316 316 316 315 314 314 314 313 313 313 312 311 309 310 312 312 312 312 311 311 311 311 311 311 311 311 312 312 311 311 311 311 311 311 311 311 311 311 311 311 312 312 312 312 312 313 313 313 313 313 312 311
316 316 316 315 315 316 317 319 324 327 327 325 325 324 323 323 323 323 323 323 322 321 320 320 319 319 319 318 318 318 317 316 316 315 315 315 314 313 313 313 313 312 312 312 312 310 308 309 311 310 311 311 310 310 310 310 310 310 310 310 311 310 310 310 310 310 310 311 310 310 310 310 310 310 311 311 311 311 311 313 313 313 314 315 314 313
316 313 313 315 315 315 314 316 320 324 325 325 323 323 322 322 323 324 323 322 321 320 319 319 318 318 317 317 317 316 316 315 315 314 313 314 314 313 312 312 312 312 311 311 311 311 309 309 310 310 310 310 310 309 309 309 310 310 309 310 310 309 309 308 308 309 309 310 309 309 309 309 309 309 310 310 310 310 310 312 311 312 314 314 314 314
317 315 316 320 319 315 315 319 322 323 324 324 323 323 323 322 323 323 322 321 320 319 318 318 317 316 316 316 316 316 315 314 313 313 312 313 313 313 312 312 311 311 310 310 310 310 309 308 309 310 309 309 309 308 307 308 308 308 308 308 308 308 307 307 307 308 308 309 309 309 309 309 308 309 309 309 309 309 310 311 311 311 312 313 313 314
320 320 321 324 324 321 321 324 324 323 322 323 323 323 323 322 321 321 320 319 318 318 318 317 316 316 315 314 315 315 315 313 313 312 311 312 313 312 312 312 311 310 309 309 308 309 309 308 308 309 309 308 307 307 307 306 306 307 307 307 307 306 306 306 307 307 308 308 308 309 309 308 308 308 309 309 309 309 309 310 310 310 311 312 312 312
322 319 318 321 323 323 322 322 322 322 322 322 322 322 321 320 319 319 318 318 317 317 316 316 315 315 314 313 313 314 314 313 312 311 310 310 311 311 311 311 310 309 309 307 306 308 308 307 307 308 308 307 306 306 306 306 306 306 306 306 306 305 306 307 307 307 307 307 308 308 308 308 308 307 308 308 308 309 309 309 309 310 310 310 310 311
321 316 314 318 320 319 320 321 322 321 320 320 320 320 320 319 318 318 317 317 316 316 315 315 314 314 313 313 312 312 312 312 312 311 310 309 309 310 309 309 309 309 307 305 305 307 307 306 307 307 307 306 306 305 305 306 306 306 306 305 306 306 306 307 307 307 307 307 307 307 308 308 307 307 307 307 307 308 308 308 308 309 309 310 310 310
319 315 314 318 319 318 320 321 321 320 319 319 319 318 318 318 317 317 316 315 315 314 314 314 313 313 312 311 311 311 311 310 310 310 309 308 308 308 307 307 307 307 305 305 305 306 306 306 307 306 306 305 305 305 305 306 306 305 305 305 306 306 307 307 307 306 306 306 306 306 306 307 307 306 306 307 307 307 307 307 307 308 308 309 309 309
317 314 316 319 320 321 321 320 320 319 318 318 317 317 317 317 316 316 315 315 314 314 313 313 312 312 311 310 310 310 309 309 308 308 308 307 307 306 306 306 306 305 304 305 305 305 306 306 306 305 305 305 304 304 305 305 304 304 304 305 306 306 307 306 305 305 304 304 305 305 306 306 306 305 305 306 306 305 306 306 307 308 308 308 308 308
316 315 317 319 320 320 321 320 319 318 318 317 317 317 316 316 315 315 314 314 314 314 313 312 311 311 310 310 309 309 309 308 307 307 307 307 306 306 306 305 304 304 305 305 305 305 306 305 305 305 304 304 304 305 305 304 304 304 305 305 305 306 306 306 305 304 303 303 304 305 305 304 303 304 305 306 306 307 307 307 308 308 308 308 308 308
317 316 318 319 319 320 321 320 318 318 318 318 317 316 316 315 315 314 314 313 313 312 311 311 310 310 309 309 308 308 307 307 306 306 306 306 306 305 305 304 304 304 305 305 304 305 305 305 304 304 303 304 304 304 304 304 304 305 305 305 305 305 305 305 305 304 303 300 300 301 301 301 302 304 305 306 307 307 307 307 307 307 307 307 308 308
Wind_Speed
0 3 2 2 2 5 5 3 5 3 5 11 10 4 3 3 6 8 10 11 10 6 2 2 7 9 9 8 10 11 8 7 8 7 6 5 5 5 7 13 13 11 10 10 11 10 11 13 12 11 11 12 14 14 14 13 13 12 11 11 10 10 10 9 7 5 5 4 3 3 2 2 3 6 7 5 4 3 3 3 4 5 6 8 9 10
2 4 1 5 7 7 6 4 4 4 3 9 7 3 1 2 4 6 11 13 9 6 2 6 8 5 6 7 11 12 7 6 10 8 8 6 7 8 8 11 12 11 10 9 11 11 11 12 11 10 11 11 13 14 13 12 12 11 10 10 9 10 11 8 5 4 4 4 2 2 2 3 4 4 4 4 5 6 6 6 5 6 6 8 10 11
4 1 5 6 6 1 1 3 3 5 2 5 6 3 1 4 4 5 13 12 6 4 5 8 9 7 9 9 9 9 8 12 11 7 12 10 8 8 7 10 12 13 13 9 10 11 10 12 11 9 10 9 11 13 12 10 11 10 9 8 8 10 9 6 5 4 3 5 4 4 4 4 3 3 1 3 8 10 10 9 8 8 6 6 6 6
1 4 7 6 3 5 2 3 1 3 3 3 4 2 3 7 5 3 8 8 5 4 6 9 7 8 11 10 8 11 10 15 12 7 14 12 8 8 6 8 10 12 14 12 11 11 9 10 11 10 9 9 10 12 12 11 10 9 8 8 8 8 6 7 9 6 7 8 8 8 7 6 4 2 3 6 8 9 10 11 10 9 8 6 4 3
4 8 5 2 1 7 3 3 2 3 1 3 3 2 4 5 5 5 9 7 2 2 6 8 6 6 4 4 8 11 12 12 13 9 11 11 8 7 7 8 7 9 12 13 11 9 10 9 10 10 10 11 11 11 12 12 11 10 9 9 9 9 8 9 11 9 9 9 8 9 7 6 4 3 3 3 5 6 6 8 8 8 8 7 5 4
6 7 2 3 2 4 6 1 3 6 2 3 3 4 5 4 5 9 11 6 1 3 6 5 4 3 0 4 8 4 6 9 10 6 5 9 8 7 7 6 6 8 8 10 10 9 12 12 11 12 12 13 12 11 13 13 12 10 10 11 10 10 10 11 12 11 10 9 9 8 6 5 3 3 2 1 1 1 2 3 5 7 8 8 6 4
4 3 1 4 2 3 6 3 6 7 5 4 4 4 4 5 3 9 12 4 2 4 5 5 6 1 1 5 6 4 4 7 7 9 8 7 8 7 6 6 6 8 8 9 9 8 11 12 12 13 11 11 12 12 13 13 13 11 11 12 10 9 9 11 12 12 10 9 9 8 5 4 4 4 5 4 3 2 1 2 3 5 9 10 8 5
1 2 3 2 3 3 3 5 6 7 6 4 5 5 5 6 5 4 9 5 4 6 5 8 10 2 1 4 5 5 7 8 8 9 10 8 10 8 6 7 8 9 7 7 8 8 10 9 11 13 11 11 12 11 12 13 13 12 12 12 11 9 9 10 12 12 11 9 9 9 7 6 6 8 7 5 3 1 1 3 3 1 5 9 8 7
2 4 2 3 4 2 3 6 5 6 7 6 5 4 5 4 3 2 2 4 5 6 4 6 8 3 1 3 4 5 8 9 9 10 11 12 12 10 8 7 8 10 6 3 6 9 9 8 10 12 10 12 12 11 11 13 13 12 12 13 12 10 9 9 11 11 12 11 10 10 9 8 9 9 6 3 2 1 1 1 1 2 3 6 7 7
3 5 6 5 6 5 7 6 3 6 5 5 2 4 4 3 1 3 4 5 3 4 5 8 6 2 2 2 2 4 6 7 7 7 11 14 14 14 13 10 8 11 8 1 2 7 8 8 10 11 9 11 13 12 12 12 13 13 12 14 14 12 11 10 10 11 12 12 10 10 10 9 9 8 6 5 6 5 3 2 3 2 1 3 6 6
3 1 2 3 5 5 5 2 2 4 4 3 7 7 6 4 1 3 2 4 1 3 6 10 8 5 4 2 1 3 7 7 6 6 9 14 16 17 16 16 11 12 10 3 2 4 7 6 8 10 10 11 12 13 13 12 13 13 12 13 14 13 14 13 10 10 10 11 11 11 10 10 10 9 9 10 10 6 4 4 4 4 2 3 6 7
5 6 3 2 3 3 3 4 4 1 3 5 6 3 2 2 1 2 0 2 1 3 5 6 11 9 4 2 2 6 10 9 8 8 10 13 16 17 16 15 13 12 10 6 3 3 5 6 7 9 10 11 11 11 12 13 13 13 12 12 12 12 13 14 13 12 10 10 11 11 11 12 12 11 11 12 10 8 6 6 5 5 2 3 6 6
4 3 3 3 1 3 5 4 4 5 4 5 3 2 2 2 1 2 2 2 2 3 4 7 11 8 4 5 7 9 10 10 11 11 11 13 14 15 16 16 14 13 11 7 5 3 3 3 4 7 8 10 10 10 12 13 14 14 13 12 12 11 12 12 12 13 12 11 11 12 13 14 14 14 13 11 11 10 10 9 9 7 4 4 7 6
1 2 2 4 4 2 7 6 2 1 2 3 2 1 2 2 2 4 3 2 3 3 4 9 9 4 4 7 8 10 9 11 14 14 12 10 12 13 14 16 16 14 12 9 6 2 3 6 4 4 6 9 9 9 12 12 13 13 13 14 14 13 13 12 12 13 14 13 13 13 14 15 16 15 15 13 12 12 12 12 12 10 7 7 8 7
1 1 2 2 3 4 7 6 5 6 5 3 4 2 2 3 3 3 2 3 4 2 5 8 5 2 4 6 7 8 10 12 14 13 12 11 13 14 14 15 15 13 11 8 7 5 4 5 4 4 4 6 8 9 11 12 12 13 13 14 15 15 15 15 15 15 15 15 14 14 14 15 17 16 16 15 14 14 15 13 12 12 10 9 8 7
2 1 4 4 4 6 6 3 3 6 4 4 4 3 3 4 4 2 3 5 5 2 3 6 3 3 5 6 7 9 11 15 13 11 12 11 13 13 13 14 13 13 12 10 9 8 5 4 3 5 4 3 5 6 8 9 11 12 13 15 15 16 17 17 18 17 16 17 17 16 16 16 17 17 16 16 15 17 17 15 14 13 12 10 9 7
3 1 4 0 2 1 6 4 4 5 3 4 3 2 4 4 5 3 3 2 2 1 3 4 2 2 4 6 10 12 12 12 12 11 12 12 14 14 13 13 13 14 15 13 11 8 5 4 2 4 3 3 5 6 7 8 9 10 11 13 14 16 18 19 19 19 19 19 20 19 18 18 19 19 18 17 17 18 18 17 15 15 14 11 8 7
4 1 2 2 2 5 2 5 4 3 5 6 4 4 3 2 5 4 1 1 1 2 5 5 4 4 3 3 7 9 9 6 7 10 13 13 15 15 13 13 14 16 16 13 9 7 6 5 3 2 2 3 4 5 6 6 8 9 11 13 14 15 18 19 19 20 21 21 22 21 20 20 20 20 20 19 19 19 20 19 17 17 16 12 9 7
4 3 2 2 1 5 2 5 4 2 2 5 4 3 3 2 3 3 2 2 2 3 4 6 6 6 4 2 3 5 6 8 9 10 11 13 14 14 13 13 15 17 17 15 12 10 8 8 6 4 2 2 3 4 4 4 6 8 10 12 13 15 16 18 19 20 21 22 23 23 22 22 22 22 22 21 21 21 21 19 18 18 17 14 10 8
3 3 2 1 2 2 2 2 1 2 1 3 2 2 4 3 2 3 2 2 2 2 1 4 5 3 2 1 4 5 7 9 9 8 9 12 14 15 14 14 15 15 15 13 12 10 6 5 7 7 5 5 4 3 4 4 5 7 9 11 13 13 14 16 18 20 21 23 25 25 24 24 24 23 23 22 22 22 21 19 17 17 17 15 11 8
3 3 1 1 1 0 1 2 3 3 3 4 4 4 4 3 4 4 2 1 1 2 2 2 3 1 2 1 5 8 8 8 10 9 10 13 16 15 15 16 15 14 13 12 10 10 7 5 8 8 7 8 6 5 7 5 6 9 11 13 14 15 15 16 17 18 21 25 27 28 26 25 26 25 24 23 22 22 22 19 17 17 17 16 12 8
3 3 3 2 1 1 3 5 5 6 6 5 4 4 4 3 4 3 2 3 3 2 2 2 4 2 3 5 7 8 8 10 13 12 11 13 15 14 15 16 15 13 13 12 11 11 10 9 10 8 8 11 8 7 11 8 7 9 11 14 15 16 17 18 19 17 18 21 25 28 27 25 26 25 25 24 23 23 22 19 18 18 18 17 13 10
4 3 4 4 0 4 5 5 6 7 6 5 4 4 4 4 4 3 3 4 4 3 3 2 5 3 6 8 7 8 11 13 15 13 12 13 13 13 14 13 13 13 12 12 12 13 13 13 14 13 13 14 12 12 13 11 10 11 11 13 13 14 16 18 19 18 18 20 23 25 25 25 25 25 25 25 23 23 22 19 18 19 19 17 14 11
4 3 3 4 1 3 3 3 2 3 2 2 3 4 5 5 5 5 4 3 3 4 3 1 4 2 4 8 10 11 12 13 14 14 13 13 12 12 12 12 12 12 12 12 13 13 14 15 15 16 16 16 16 16 16 14 14 15 15 14 12 13 15 14 14 15 18 21 23 22 22 23 24 23 24 25 24 22 21 19 19 20 19 18 15 12
4 2 3 4 2 2 3 3 2 1 1 2 5 4 4 7 8 5 3 3 2 3 3 2 3 4 4 8 11 11 12 13 14 14 12 12 11 12 12 12 12 13 12 13 14 14 16 16 16 16 17 17 17 17 18 17 17 18 18 17 16 15 15 14 13 15 17 18 19 21 23 24 23 21 22 22 23 23 21 18 19 21 20 18 15 13
4 3 3 3 3 1 1 1 0 2 2 4 5 5 5 9 10 5 3 2 2 4 5 3 5 6 6 8 10 10 11 11 13 13 13 12 12 12 13 11 12 13 13 14 14 15 16 17 17 18 18 18 18 18 18 18 18 19 18 18 21 22 18 15 15 16 16 15 14 18 22 23 22 20 20 19 20 23 22 20 21 22 20 18 15 13
3 2 1 3 3 1 2 2 1 3 4 3 2 4 7 9 8 6 4 3 4 5 4 6 6 6 7 8 9 10 10 10 11 12 13 13 12 12 12 12 13 14 14 15 16 16 17 18 18 19 19 19 20 19 19 19 19 19 17 17 22 26 24 20 18 16 16 15 14 14 17 19 19 18 19 19 19 20 21 20 21 21 19 17 15 14
4 1 3 3 1 1 2 4 1 2 4 3 4 6 7 8 7 6 4 4 5 4 3 8 8 7 8 8 9 10 9 8 10 12 12 12 12 11 10 12 14 15 15 15 16 16 17 17 18 20 20 20 21 21 20 20 19 20 18 16 19 25 27 25 23 21 19 19 18 16 15 15 16 16 17 18 18 16 16 19 21 20 18 17 16 15
4 0 3 3 1 4 3 1 2 2 1 1 3 3 3 6 6 5 5 6 6 4 5 8 10 9 8 8 8 9 9 9 11 12 12 12 13 12 12 14 15 15 15 15 15 15 16 17 18 19 20 21 21 21 21 20 19 20 20 17 17 22 26 25 25 26 26 25 23 21 19 17 16 17 17 17 17 15 15 17 19 20 19 18 18 16
1 1 1 2 3 0 3 4 4 3 1 0 3 3 2 5 6 6 8 9 6 4 6 7 9 9 7 7 9 9 10 11 11 12 13 14 14 14 14 14 13 12 13 13 13 15 16 17 18 18 19 21 21 21 21 21 20 19 20 19 18 19 22 23 24 27 29 28 28 26 25 22 20 18 18 16 15 13 13 14 16 18 19 19 18 16
2 2 3 1 2 3 1 2 1 1 2 3 7 8 6 7 9 10 10 9 6 4 5 5 7 8 6 7 9 10 11 12 12 13 14 13 14 14 13 13 13 13 13 14 15 16 17 17 18 18 19 20 20 20 21 21 21 20 20 20 19 18 20 21 20 23 26 25 26 27 28 27 25 21 19 16 14 12 13 13 14 15 16 17 17 15
1 0 1 2 3 3 0 2 2 3 2 5 6 6 7 7 7 7 8 7 5 4 4 4 4 5 5 6 8 9 12 14 14 15 14 13 13 13 13 13 14 15 15 16 16 17 18 18 18 19 19 19 19 19 19 20 21 21 21 20 19 19 20 19 19 22 24 22 24 26 26 26 26 25 23 20 16 15 14 13 13 12 12 13 15 15
2 2 4 3 2 4 2 1 5 2 0 3 5 6 7 5 5 6 8 7 6 4 4 5 5 4 4 6 6 7 11 13 14 14 13 13 14 13 13 14 15 15 16 16 17 18 19 18 18 19 19 19 19 19 19 19 19 20 21 20 20 20 21 20 20 24 24 23 24 27 27 25 25 27 28 25 22 20 17 14 13 11 10 12 15 16
4 2 2 3 2 4 3 2 3 2 2 3 5 5 4 3 5 6 5 5 6 5 5 6 6 4 5 6 5 6 9 10 10 11 12 13 13 13 14 15 15 16 16 16 17 18 19 19 19 19 19 19 19 19 19 19 19 19 21 21 21 22 23 22 22 23 24 23 24 28 28 24 24 27 29 27 26 25 22 18 14 11 9 11 14 15
2 3 1 2 2 4 5 3 2 2 1 4 5 4 4 4 7 7 5 6 7 5 4 5 6 5 5 5 4 6 8 8 8 10 11 12 13 13 14 15 16 17 17 17 18 18 19 20 19 19 19 19 19 19 19 19 20 19 20 21 22 23 23 23 22 23 23 23 24 25 26 24 25 28 28 28 27 26 26 23 18 13 11 10 12 13
2 2 1 0 1 3 3 2 2 2 5 5 5 4 3 4 7 5 5 7 6 6 6 6 6 6 5 3 2 4 7 8 8 11 11 11 12 13 14 15 16 17 17 17 18 19 19 20 19 19 20 19 18 19 20 19 20 20 20 20 21 21 21 22 22 22 22 22 22 23 23 23 26 28 28 28 28 26 25 25 21 17 14 11 12 13
3 2 1 0 2 1 1 3 4 5 6 5 5 3 3 4 4 3 3 4 3 5 6 4 4 4 2 1 1 2 5 6 6 10 11 12 12 13 14 14 15 16 16 17 18 18 18 19 19 19 19 19 18 20 21 20 19 20 20 20 20 20 20 20 20 21 22 22 21 21 21 21 23 27 27 26 27 26 24 24 23 21 19 16 14 14
2 3 1 1 1 1 1 2 4 4 4 4 6 5 5 5 5 4 2 2 3 6 4 2 2 3 2 3 5 8 5 3 5 8 10 12 13 13 12 13 14 15 15 16 17 18 18 19 19 19 19 19 19 21 22 21 20 20 20 20 19 19 20 20 20 21 22 22 21 21 21 21 22 26 27 24 24 25 24 23 23 23 23 21 19 16
0 0 2 2 1 2 2 2 2 1 1 3 6 6 5 6 6 3 2 2 5 6 3 1 2 4 6 8 10 13 8 0 4 7 10 12 12 13 13 13 14 14 14 16 17 17 18 19 19 18 19 20 20 21 21 21 21 20 19 20 19 19 20 20 21 21 21 21 22 22 22 22 23 27 27 24 22 24 25 24 24 24 24 22 21 21
2 3 3 3 2 3 2 2 2 3 2 5 6 6 6 7 5 3 2 2 4 4 3 4 5 7 8 9 11 10 6 5 6 10 12 12 11 12 12 12 14 14 14 16 18 18 18 19 18 18 19 20 21 21 21 21 21 20 20 21 20 20 21 22 21 22 21 21 22 23 23 23 24 26 25 23 23 24 25 24 24 25 25 23 23 25
3 3 3 3 3 3 3 1 3 4 4 5 5 6 7 6 4 3 1 3 5 5 8 7 6 7 8 8 9 9 10 9 9 11 12 11 11 12 12 12 13 14 15 16 17 19 19 18 18 18 18 19 21 21 21 22 22 21 21 22 22 22 22 22 22 23 22 21 22 23 23 24 25 25 24 22 23 25 25 24 23 24 25 24 22 25
3 3 3 3 4 3 2 1 4 4 2 3 5 6 5 3 2 2 5 6 7 8 7 6 5 5 6 7 8 8 10 10 10 10 11 11 11 11 12 13 14 14 15 16 17 19 21 19 17 18 19 19 21 22 22 22 22 21 22 22 22 22 22 23 23 23 22 22 22 24 24 24 24 24 23 22 23 24 24 23 23 23 22 22 22 22
1 2 3 1 1 3 1 0 2 2 2 2 4 4 2 1 4 8 8 7 8 8 7 7 8 7 7 8 8 8 8 9 9 10 10 10 10 11 12 13 14 14 15 16 17 19 21 19 18 19 19 19 20 21 22 21 21 22 22 22 22 22 23 23 24 23 22 22 24 25 24 24 24 24 23 22 21 22 22 22 23 22 20 21 23 21
2 2 2 3 3 3 2 1 2 4 6 4 2 4 6 7 10 9 7 6 7 8 9 10 9 8 8 8 7 6 7 8 8 9 10 9 9 10 11 12 13 14 16 17 18 19 20 19 19 18 18 19 21 22 22 21 21 23 23 22 22 23 24 25 24 23 22 23 24 24 24 24 24 23 23 22 21 21 21 21 22 21 19 19 21 21
3 3 3 4 4 4 4 5 6 9 10 7 7 10 12 12 11 8 7 8 8 8 10 11 10 8 7 7 6 5 6 7 8 9 10 10 9 10 11 12 13 15 16 18 18 18 19 20 20 19 19 20 22 22 22 22 22 23 23 23 23 24 25 25 24 23 23 23 24 24 24 24 24 23 22 21 21 21 21 20 20 20 20 20 20 21
5 4 3 1 5 8 8 8 10 11 11 10 10 11 11 11 9 9 11 12 12 11 11 11 10 9 7 6 6 6 6 7 8 8 10 10 10 11 11 12 13 14 16 19 19 19 19 20 19 19 20 22 23 23 22 22 22 22 23 24 25 24 24 24 24 24 24 24 24 25 24 24 24 23 22 21 21 21 20 20 20 20 20 20 19 20
5 2 1 2 6 4 3 7 10 11 10 11 10 10 11 11 10 11 12 13 12 12 11 10 8 7 7 7 6 7 6 6 7 8 9 11 11 11 12 14 14 15 17 20 19 19 20 19 18 19 21 23 23 22 22 22 21 21 23 25 24 23 23 24 24 25 24 24 24 24 23 23 24 24 23 22 22 22 20 20 19 19 20 20 19 21
6 4 3 5 5 2 5 11 13 11 10 10 9 9 11 11 11 12 12 12 12 11 9 9 8 7 7 7 7 6 6 7 8 9 10 10 10 11 13 14 14 16 19 19 18 18 19 18 18 20 21 21 22 22 21 21 21 22 24 24 22 22 23 23 23 23 23 23 23 23 23 24 24 23 23 23 23 22 21 21 20 19 20 19 19 20
10 6 4 5 6 6 9 12 13 10 8 9 9 10 11 11 12 12 11 11 11 10 9 8 7 7 6 6 6 6 6 7 9 9 10 10 11 13 14 14 15 18 19 18 17 18 17 17 19 20 20 20 21 21 20 21 22 22 23 22 22 23 25 25 26 26 24 23 23 23 24 24 24 23 24 24 24 23 22 22 21 19 19 18 18 19
7 4 3 6 6 4 7 13 14 8 6 10 12 12 12 12 11 11 10 10 9 9 8 7 7 7 6 6 6 6 6 7 9 10 10 10 11 13 13 14 17 18 17 16 17 17 16 17 18 19 19 20 20 19 20 22 22 22 21 21 22 23 24 26 26 26 26 26 24 23 24 25 24 24 24 24 24 24 23 22 20 18 17 18 19 19
6 2 3 5 2 1 11 21 16 7 8 15 16 14 13 12 11 10 10 9 9 8 6 5 5 5 5 5 6 7 6 7 9 10 9 10 12 12 13 15 16 16 15 15 16 16 17 17 18 18 20 19 19 19 21 21 21 21 21 21 21 20 20 21 23 25 29 32 30 26 25 25 24 24 24 24 23 23 24 24 22 19 17 18 19 18
Wind_Direction
96 267 250 118 63 48 68 49 11 7 49 76 90 37 12 49 47 74 87 84 80 79 90 122 138 157 161 149 128 115 120 126 113 99 95 91 84 84 95 104 116 129 128 132 137 132 128 132 132 128 130 133 133 134 133 134 136 137 141 144 144 143 136 125 119 127 137 128 100 98 98 63 44 25 23 26 35 29 5 12 357 350 7 12 11 5
241 247 331 29 43 40 19 27 347 319 87 106 96 59 49 59 50 74 90 94 86 76 46 42 65 120 141 117 112 125 152 127 113 112 101 93 88 86 94 105 113 122 119 126 136 135 135 133 131 132 134 138 141 140 139 143 142 139 142 144 145 143 129 108 101 116 118 116 112 101 71 58 52 37 13 351 22 40 30 25 11 0 14 19 15 7
228 220 69 41 35 43 300 31 355 323 6 112 99 82 91 67 69 78 82 89 85 70 87 72 49 26 36 48 87 115 130 126 135 135 104 91 90 100 106 106 117 128 127 134 140 142 147 141 138 137 137 147 153 150 150 149 147 147 148 150 150 135 119 116 131 133 156 161 147 147 150 151 172 176 150 13 26 34 25 23 21 12 21 35 18 5
145 62 56 55 359 272 225 85 284 301 353 60 105 105 75 85 94 87 78 69 11 12 85 88 63 29 21 17 43 47 63 116 136 111 98 102 99 105 124 123 124 129 133 146 148 150 159 151 147 146 147 159 164 160 158 155 158 163 162 169 159 133 137 161 152 163 195 177 164 173 173 166 173 138 66 33 28 27 17 14 17 16 19 29 19 15
80 66 43 85 352 297 325 69 296 292 12 48 58 1 27 82 95 109 113 100 14 26 88 95 72 47 30 30 48 21 13 74 92 76 94 113 107 98 122 131 127 127 136 150 155 161 170 168 160 158 162 165 168 169 166 164 167 170 172 178 169 154 171 179 166 176 179 160 163 170 157 153 155 107 77 34 24 24 12 2 6 19 18 11 12 21
66 65 330 247 158 301 310 62 34 351 349 76 49 10 15 18 53 96 112 107 142 99 76 91 76 36 84 79 78 44 358 61 101 123 110 116 123 123 127 126 131 133 131 141 150 162 168 173 174 173 174 165 167 177 174 171 169 170 179 178 173 172 181 182 172 167 157 149 158 158 149 163 160 127 148 194 69 31 353 349 360 13 7 359 3 20
76 110 293 328 11 311 322 64 68 345 323 82 42 9 4 322 12 109 123 113 128 105 55 73 92 57 320 71 88 109 65 63 100 131 134 135 122 105 122 140 139 133 125 131 142 158 169 179 184 186 187 171 174 184 177 175 173 174 184 179 172 177 185 183 172 161 156 157 159 161 171 179 176 191 207 211 193 197 345 35 36 4 346 347 356 357
56 150 149 5 322 279 349 60 69 335 316 63 38 333 320 324 347 101 135 130 114 100 63 83 101 128 313 77 98 90 80 65 53 91 113 122 116 98 100 124 127 125 125 135 145 165 179 190 193 193 198 188 187 188 177 179 179 178 185 180 171 179 192 188 175 167 166 174 178 175 180 182 196 217 219 207 181 157 30 39 70 91 317 323 343 352
338 1 2 359 332 320 57 44 35 335 332 41 41 331 334 347 331 315 104 101 109 110 105 113 111 117 13 75 97 69 75 75 47 55 62 70 106 113 88 94 119 122 111 119 154 171 183 193 192 192 202 199 197 198 187 185 183 181 187 184 176 180 195 193 181 177 174 182 190 183 179 187 205 221 216 194 201 208 169 353 10 154 215 295 329 347
33 1 340 351 350 14 52 44 9 320 338 33 348 264 257 251 275 339 39 86 111 101 132 156 141 111 98 87 79 57 69 75 56 55 58 62 79 93 107 121 122 119 114 74 183 175 186 200 193 189 197 199 203 210 206 198 190 188 195 196 190 187 194 192 181 184 186 188 195 189 182 190 209 218 199 198 234 243 198 214 292 309 228 279 321 336
67 68 299 339 351 10 38 71 95 334 321 270 267 258 245 243 20 348 39 86 80 65 112 145 124 86 100 128 178 116 105 98 77 66 64 63 58 63 99 123 115 111 122 159 226 185 188 204 195 192 197 197 205 214 213 213 205 199 203 207 207 202 205 206 195 193 196 199 205 199 191 198 209 212 198 205 227 235 214 215 249 292 314 302 319 339
164 155 136 26 343 327 285 224 177 233 265 247 263 301 324 309 34 278 237 96 92 70 84 111 98 91 102 102 105 105 102 97 86 75 58 57 58 56 71 94 100 94 98 128 163 173 197 208 201 207 210 204 212 219 216 219 218 215 215 217 220 217 217 221 219 215 213 217 219 210 207 210 209 213 212 212 220 222 225 235 251 268 273 285 306 330
173 108 107 127 137 291 297 278 205 200 222 251 265 66 35 300 313 3 1 10 29 57 58 79 90 94 93 85 80 77 79 77 71 67 55 52 60 61 59 67 77 74 75 100 121 147 236 261 228 220 218 214 223 225 220 222 224 224 224 226 230 228 229 233 232 227 223 228 229 219 219 221 215 215 217 221 223 218 222 229 243 260 244 242 271 290
147 44 179 166 145 284 321 335 339 284 266 291 312 48 28 322 3 29 359 353 46 37 48 83 93 81 62 73 71 68 74 81 79 74 66 58 57 53 52 59 64 63 65 77 86 104 306 322 291 239 225 224 235 235 229 231 231 231 232 234 236 234 236 239 235 230 227 230 231 225 226 227 226 223 218 222 227 224 228 228 232 243 235 232 248 268
352 73 158 76 37 327 341 3 349 326 317 352 10 342 12 27 15 33 357 357 49 27 18 66 92 83 69 69 73 86 84 76 76 69 60 59 59 52 50 59 68 64 59 59 65 62 352 332 307 297 277 234 241 244 239 241 241 241 242 243 245 244 245 244 241 239 234 234 234 231 232 231 232 233 226 221 222 228 235 233 230 233 231 233 240 254
309 112 106 48 1 327 344 18 331 318 333 11 355 329 30 28 342 28 55 6 20 37 21 51 64 71 84 72 61 72 79 85 87 69 57 60 63 62 57 56 60 59 56 51 48 48 33 18 336 314 314 255 258 255 244 246 247 247 249 251 254 255 255 254 251 250 246 244 241 237 237 235 233 234 235 230 225 228 235 233 228 231 233 236 241 253
304 45 88 306 219 333 346 342 330 336 349 345 341 21 41 16 342 33 105 1 334 112 74 76 82 85 93 67 49 44 56 95 109 80 64 59 57 62 62 54 46 49 63 63 42 33 49 53 346 311 317 288 287 286 271 259 252 252 251 252 256 260 259 257 256 256 254 251 249 245 241 239 236 234 235 236 232 231 235 233 226 227 234 238 242 256
311 324 97 274 196 114 8 302 305 337 334 331 1 27 13 40 20 11 66 292 286 75 65 72 63 49 49 32 46 43 36 58 71 60 58 50 47 49 49 51 48 51 63 63 46 43 50 51 51 22 359 326 312 315 310 296 281 271 260 258 264 267 261 257 257 258 259 256 254 253 249 245 243 241 238 235 232 234 237 234 225 223 232 238 240 252
311 284 134 319 14 111 157 252 249 205 338 339 4 5 330 77 52 321 314 16 10 41 71 96 77 46 14 352 54 50 29 32 34 45 54 47 47 45 40 47 51 54 58 55 57 63 45 32 43 61 47 359 339 331 321 308 301 291 275 269 268 266 263 262 262 261 262 263 259 256 255 253 250 250 247 238 231 232 237 237 229 225 231 237 237 246
319 307 133 48 23 112 175 229 262 169 104 337 353 25 358 30 25 312 329 22 10 16 86 127 98 57 278 242 73 54 36 36 32 37 48 48 53 49 42 44 44 49 57 56 60 65 56 35 37 50 50 16 356 340 315 273 280 292 278 269 266 266 266 262 264 266 264 265 265 261 259 258 258 255 249 240 233 231 233 234 230 226 231 237 236 241
334 304 226 161 88 164 191 77 25 32 47 350 10 31 352 358 12 345 331 320 338 356 353 86 83 75 211 109 50 42 36 35 36 41 47 53 60 58 53 53 50 49 53 55 55 50 45 40 41 53 42 21 25 12 348 329 317 310 291 282 282 283 279 267 268 276 271 266 266 264 261 258 258 256 248 240 234 232 231 227 224 225 230 236 237 236
342 308 315 297 149 109 65 55 18 16 21 347 10 29 345 359 3 326 324 351 350 9 13 74 93 59 45 52 40 32 31 37 43 50 56 60 65 66 63 60 58 56 53 51 49 40 31 27 34 43 34 29 36 17 2 358 346 328 310 306 303 301 302 292 281 279 275 270 268 268 267 263 262 263 259 250 239 234 233 225 219 224 232 237 238 237
350 298 295 294 34 97 74 43 9 15 12 333 0 20 348 9 360 336 22 4 341 1 3 87 113 58 24 38 40 41 46 48 50 52 56 60 63 67 69 66 61 59 54 48 43 37 32 28 28 28 26 28 30 25 20 9 359 357 339 328 322 319 321 308 286 273 272 274 274 276 277 275 274 274 270 261 249 239 236 229 220 222 230 234 236 241
343 280 277 295 349 111 117 83 40 45 17 313 30 19 346 19 24 4 21 348 331 17 357 15 114 93 35 39 40 45 52 54 57 58 59 62 64 63 63 64 63 58 52 48 44 39 35 32 30 26 22 21 20 22 23 13 12 18 9 357 347 332 329 321 301 290 286 283 282 282 282 281 281 278 271 266 260 250 241 233 225 225 229 231 232 243
330 306 312 300 273 187 157 114 81 71 150 105 57 27 347 16 25 9 345 304 339 32 347 325 100 99 61 44 39 40 44 46 51 55 59 61 61 60 59 58 60 56 51 48 45 42 38 33 31 28 23 22 18 16 16 13 18 22 16 12 8 356 344 335 323 314 308 302 293 286 285 286 286 281 274 270 267 261 253 240 231 232 236 236 234 241
322 318 331 330 338 348 23 88 146 324 31 69 41 23 15 20 20 2 314 299 353 11 356 17 102 103 65 44 38 35 37 41 42 43 48 50 50 57 60 55 52 48 45 43 39 38 36 30 28 27 25 22 17 14 15 15 18 21 18 14 14 13 7 352 337 326 323 322 307 291 289 294 296 291 283 278 272 267 263 251 239 239 242 242 239 238
287 291 12 40 39 36 52 89 216 321 23 61 20 26 36 30 19 355 338 352 352 349 13 36 69 91 67 44 38 34 31 33 35 35 41 45 45 53 57 51 45 43 42 41 38 35 33 29 25 23 21 19 15 13 16 15 14 14 13 13 16 18 18 10 360 349 340 337 332 317 307 305 305 300 292 288 281 272 271 264 252 250 251 246 242 235
268 242 99 89 59 297 63 96 119 350 19 18 8 22 25 26 25 6 8 23 357 349 46 40 44 70 61 39 36 37 32 32 35 34 36 41 41 43 44 44 44 43 41 39 34 29 27 23 19 16 13 12 10 10 11 12 10 9 10 11 12 16 20 20 17 13 5 359 356 350 336 323 315 309 301 296 289 284 287 280 268 267 265 252 241 235
283 81 116 120 48 330 339 75 109 60 46 10 26 35 29 35 34 19 28 34 20 38 71 55 55 63 54 43 41 34 30 35 41 41 41 42 40 37 38 42 44 39 33 30 25 20 16 13 11 10 7 6 4 3 3 4 4 6 7 7 4 9 16 20 22 24 22 18 15 6 355 345 333 324 317 306 296 291 292 286 276 273 267 252 239 230
324 15 53 116 133 199 323 345 36 37 310 175 33 9 31 60 54 48 40 27 22 61 84 84 80 68 51 49 46 36 37 42 44 47 48 46 43 41 41 41 38 29 21 18 13 8 4 4 6 6 5 3 0 359 358 358 359 1 2 2 360 1 6 11 18 23 22 22 24 19 11 4 354 343 335 326 316 305 293 286 282 276 266 257 250 236
67 5 349 337 172 139 16 326 87 44 336 57 42 19 31 44 43 49 42 20 12 55 76 100 100 78 61 58 51 45 48 50 51 51 47 43 40 36 32 29 23 17 12 8 6 6 4 5 7 6 5 2 0 360 358 359 2 1 358 360 0 359 1 3 9 16 17 18 21 19 16 13 10 3 354 341 333 323 305 295 293 286 272 263 260 248
149 56 77 237 222 120 254 276 102 76 41 78 64 39 53 56 45 55 56 34 10 15 43 71 85 69 53 57 58 54 53 51 48 45 38 33 31 26 22 19 15 15 14 11 10 11 8 7 8 7 4 2 1 360 358 360 5 2 358 1 4 2 4 5 6 12 15 13 12 12 11 12 14 15 12 1 347 336 327 321 315 302 281 261 253 248
246 179 147 207 197 130 194 327 62 63 226 100 73 45 55 72 78 72 64 52 24 9 46 70 77 70 49 54 57 55 60 58 49 45 36 28 29 27 24 21 16 15 16 14 14 13 10 9 8 6 4 2 1 359 356 358 4 2 357 359 4 4 9 14 11 12 14 10 5 4 5 9 13 14 15 14 4 354 347 340 331 316 288 261 249 244
274 271 179 201 172 136 153 89 78 232 233 103 87 57 23 31 89 87 71 60 49 57 89 94 89 79 61 62 57 55 73 74 60 52 42 32 28 25 23 21 15 15 15 14 16 16 11 8 5 3 4 3 1 359 357 358 1 360 355 355 359 4 9 12 10 9 12 10 3 1 2 5 7 6 8 11 10 5 1 355 343 326 298 267 256 247
251 302 307 216 165 115 108 116 200 234 134 122 111 72 14 32 84 95 82 60 44 43 75 89 83 68 54 56 48 56 82 87 66 54 44 36 30 22 20 20 14 11 11 13 18 16 8 3 2 4 4 2 1 0 359 358 357 356 355 354 356 359 2 4 5 5 7 7 5 3 1 359 359 360 0 2 3 4 5 3 354 338 314 283 269 259
251 274 316 324 79 120 145 171 196 137 126 131 113 87 65 83 98 102 88 76 48 31 50 64 66 62 60 65 60 85 110 110 81 59 39 27 29 26 21 18 12 8 8 14 18 14 5 0 0 3 3 0 2 3 0 359 358 358 358 357 358 360 0 0 1 0 0 1 1 2 2 1 0 360 359 357 356 356 359 0 358 350 332 303 280 264
309 342 25 349 352 301 184 103 102 136 155 152 139 116 82 91 109 109 99 101 67 52 66 78 88 87 94 147 121 117 152 150 101 63 38 24 28 30 22 15 11 9 10 16 18 11 4 360 1 5 6 5 8 7 2 1 2 1 0 359 0 1 0 359 359 357 356 357 357 358 359 357 354 353 355 357 354 350 351 354 354 351 342 324 301 275
328 359 333 286 344 318 313 106 131 164 177 157 135 110 82 87 95 87 117 155 100 83 93 124 113 88 32 18 352 320 288 181 106 62 37 28 29 28 22 17 13 9 11 16 16 10 4 1 2 6 7 7 10 8 3 3 4 4 3 2 0 360 359 358 356 354 354 354 354 355 352 349 347 347 350 357 356 350 349 349 344 341 339 334 322 299
41 55 280 276 190 181 264 251 165 107 95 129 122 114 116 122 118 117 210 178 119 111 130 154 63 41 28 16 345 324 314 318 88 53 34 27 30 29 23 18 11 8 12 15 14 11 4 360 1 4 5 5 6 5 2 1 2 2 2 1 359 359 359 356 353 353 353 351 352 352 350 350 350 349 349 351 351 351 351 347 339 332 329 329 330 320
202 189 217 255 222 173 236 270 84 71 98 127 126 127 127 130 148 184 239 183 164 150 97 70 51 36 31 12 352 356 24 37 32 38 34 28 30 29 22 17 11 9 11 12 12 11 5 360 0 2 2 1 1 1 359 357 356 356 357 357 355 354 354 352 350 350 348 348 351 352 350 349 349 349 348 344 343 347 349 348 345 339 331 328 329 326
197 198 212 263 253 196 217 223 96 90 110 120 116 120 122 133 187 215 105 135 147 104 73 68 55 39 38 25 10 26 50 47 35 35 31 27 30 24 18 18 15 11 11 10 8 7 4 1 360 360 360 358 357 356 354 352 351 350 350 351 350 350 350 346 343 343 344 347 349 347 344 343 342 343 344 342 341 343 344 344 348 348 343 340 335 327
179 188 209 249 259 240 247 126 113 108 106 112 109 115 130 168 219 125 114 123 114 96 86 80 61 28 20 38 43 39 43 45 39 28 22 24 25 18 15 17 14 11 10 6 3 3 3 360 355 355 355 353 353 353 350 347 347 346 345 346 345 345 343 340 338 337 337 337 336 335 334 333 332 334 335 336 338 339 337 337 342 344 344 346 345 335
113 212 217 196 263 270 269 175 143 128 142 167 153 144 162 203 120 124 132 132 118 111 107 92 72 44 26 41 53 49 42 39 33 24 17 17 19 16 13 13 11 9 8 4 360 1 2 358 353 350 350 350 351 350 347 344 343 343 341 339 338 337 336 335 334 333 331 329 328 330 331 330 331 332 331 329 329 330 332 333 337 340 341 345 347 343
76 293 301 61 29 305 283 34 53 97 123 155 159 110 92 93 109 125 137 134 125 120 115 103 86 62 46 43 43 48 46 35 25 21 14 10 15 13 7 8 9 6 4 1 356 355 357 355 348 345 346 347 346 345 344 342 339 338 338 337 336 335 333 332 332 331 330 329 329 331 332 331 332 333 333 330 326 326 330 332 332 335 339 343 345 345
69 33 12 54 50 26 56 94 103 104 107 101 87 93 98 100 103 101 94 95 94 97 105 106 96 76 55 37 31 46 47 30 19 16 9 5 7 6 2 3 4 2 360 356 351 348 350 349 344 342 343 343 342 342 342 340 337 337 337 337 336 335 334 334 335 334 333 332 330 330 331 329 330 331 331 331 331 331 332 331 330 333 336 339 341 341
81 70 12 60 104 84 77 105 121 117 111 105 99 101 104 105 105 97 89 86 82 79 84 89 88 79 64 48 42 48 45 30 17 11 5 359 358 0 0 357 356 356 355 351 346 344 345 344 342 343 342 341 342 343 342 342 341 340 338 337 338 339 338 338 338 337 335 334 331 331 331 331 331 331 331 331 332 331 330 330 331 332 332 334 337 336
113 119 294 144 142 136 131 137 132 124 122 120 116 114 111 107 105 104 100 96 94 90 86 84 83 78 71 63 51 42 37 30 22 12 2 356 355 358 357 353 352 351 349 347 344 343 344 345 345 345 343 342 343 344 343 344 344 341 340 340 341 342 341 340 340 339 338 338 336 335 335 333 331 331 332 332 330 328 327 328 329 330 329 330 332 331
142 181 192 151 146 127 126 135 133 128 131 134 134 132 125 117 111 108 106 104 102 98 93 88 84 79 73 62 49 41 32 27 22 11 359 356 356 356 352 350 349 347 346 346 345 344 346 347 346 344 343 342 342 343 343 345 344 342 342 343 343 343 342 340 339 338 339 339 338 337 337 335 332 331 330 329 327 326 325 324 323 324 324 323 325 327
130 165 180 153 134 103 110 133 138 136 144 153 149 139 130 125 121 117 115 116 113 108 104 98 89 85 80 63 50 45 34 23 18 6 358 358 357 353 351 349 348 346 345 346 346 345 346 346 344 343 342 341 342 343 343 343 343 343 344 344 343 342 338 334 333 334 335 336 338 338 336 335 334 333 330 327 326 325 324 323 322 320 319 319 321 323
142 170 175 167 169 158 157 158 153 150 164 162 151 141 136 133 129 126 124 123 119 113 108 106 102 96 88 74 60 49 34 22 12 2 358 358 354 352 352 349 347 345 344 345 345 344 345 345 344 342 342 342 344 344 343 343 344 345 345 345 345 344 340 337 337 340 341 343 342 336 331 330 332 333 331 328 328 328 329 329 328 325 321 318 320 320
178 197 154 159 199 223 162 161 163 172 163 152 146 142 141 140 137 136 134 127 121 116 109 103 101 89 71 61 52 42 32 21 8 359 357 356 352 351 351 349 346 344 344 344 344 344 346 345 343 342 344 345 344 342 342 344 346 346 346 344 343 343 343 344 344 341 338 337 335 331 330 334 337 336 332 331 331 332 333 333 332 329 323 319 318 320